| time (UTC) | temp F | wind direction | speed knots | gust knots | rain 1hr in | rain 24hr in | rain mn in | humidity % | barometer mb |
| 20260503072531 | 60 | 273 | 3.5 | 7.8 | 0.00 | 0.02 | 0.02 | 85 | 1014.6 |
| 20260503072024 | 59 | 233 | 3.5 | 7.0 | 0.00 | 0.02 | 0.02 | 88 | 1014.6 |
| 20260503071535 | 59 | 263 | 4.3 | 7.0 | 0.00 | 0.02 | 0.02 | 88 | 1014.6 |
| 20260503071057 | 59 | 243 | 2.6 | 6.1 | 0.00 | 0.02 | 0.02 | 89 | 1014.6 |
| 20260503070625 | 58 | 252 | 3.5 | 6.1 | 0.00 | 0.02 | 0.02 | 89 | 1012.1 |
| 20260503054536 | 58 | 276 | 3.5 | 7.0 | 0.01 | 0.01 | 0.01 | 89 | 1014.3 |
| 20260503054030 | 58 | 270 | 3.5 | 7.0 | 0.01 | 0.01 | 0.01 | 88 | 1014.4 |
| 20260503053616 | 58 | 267 | 4.3 | 7.0 | 0.00 | 0.00 | 0.00 | 87 | 1011.9 |
| 20260503053033 | 58 | 234 | 1.7 | 5.2 | 0.00 | 0.00 | 0.00 | 86 | 1014.4 |
| 20260503052522 | 58 | 223 | 3.5 | 5.2 | 0.00 | 0.00 | 0.00 | 86 | 1014.3 |
| 20260503052031 | 58 | 229 | 2.6 | 5.2 | 0.00 | 0.00 | 0.00 | 85 | 1014.3 |
| 20260503051539 | 59 | 243 | 3.5 | 5.2 | 0.00 | 0.00 | 0.00 | 85 | 1014.3 |
| 20260503050527 | 59 | 248 | 3.5 | 7.0 | 0.00 | 0.00 | 0.00 | 85 | 1014.3 |
| 20260503050045 | 59 | 270 | 3.5 | 5.2 | 0.00 | 0.00 | 0.00 | 84 | 1014.3 |
| 20260503045538 | 59 | 278 | 2.6 | 5.2 | 0.00 | 0.00 | 0.00 | 84 | 1014.2 |
| 20260503045035 | 59 | 283 | 3.5 | 7.0 | 0.00 | 0.00 | 0.00 | 84 | 1014.1 |
| 20260503044517 | 59 | 293 | 3.5 | 7.0 | 0.00 | 0.00 | 0.00 | 84 | 1014.0 |
| 20260503044031 | 59 | 293 | 3.5 | 7.0 | 0.00 | 0.00 | 0.00 | 83 | 1014.0 |
| 20260503043528 | 59 | 273 | 2.6 | 5.2 | 0.00 | 0.00 | 0.00 | 83 | 1013.9 |
| 20260503043034 | 59 | 252 | 4.3 | 7.0 | 0.00 | 0.00 | 0.00 | 83 | 1014.0 |
| 20260503042517 | 59 | 260 | 3.5 | 7.8 | 0.00 | 0.00 | 0.00 | 82 | 1014.1 |
| 20260503042031 | 59 | 264 | 3.5 | 7.8 | 0.00 | 0.00 | 0.00 | 82 | 1014.1 |
| 20260503041625 | 59 | 258 | 2.6 | 7.0 | 0.00 | 0.00 | 0.00 | 81 | 1011.7 |
| 20260503041023 | 59 | 301 | 4.3 | 7.8 | 0.00 | 0.00 | 0.00 | 81 | 1014.2 |
| 20260503035602 | 59 | 280 | 3.5 | 7.8 | 0.00 | 0.00 | 0.00 | 79 | 1014.2 |
| 20260503035027 | 60 | 252 | 5.2 | 8.7 | 0.00 | 0.00 | 0.00 | 79 | 1014.4 |
| 20260503034523 | 60 | 273 | 5.2 | 8.7 | 0.00 | 0.00 | 0.00 | 78 | 1014.4 |
| 20260503034027 | 60 | 245 | 4.3 | 7.8 | 0.00 | 0.00 | 0.00 | 77 | 1014.4 |
| 20260503033545 | 60 | 264 | 5.2 | 7.0 | 0.00 | 0.00 | 0.00 | 77 | 1014.4 |
| 20260503033037 | 60 | 255 | 3.5 | 5.2 | 0.00 | 0.00 | 0.00 | 77 | 1014.4 |
| 20260503032542 | 60 | 269 | 3.5 | 7.0 | 0.00 | 0.00 | 0.00 | 76 | 1014.4 |
| 20260503032033 | 60 | 248 | 4.3 | 7.0 | 0.00 | 0.00 | 0.00 | 76 | 1014.4 |
| 20260503031535 | 60 | 253 | 2.6 | 5.2 | 0.00 | 0.00 | 0.00 | 76 | 1014.5 |
| 20260503031039 | 60 | 271 | 2.6 | 5.2 | 0.00 | 0.00 | 0.00 | 75 | 1014.5 |
| 20260503030526 | 60 | 264 | 2.6 | 3.5 | 0.00 | 0.00 | 0.00 | 75 | 1014.5 |
| 20260503030106 | 60 | 236 | 2.6 | 3.5 | 0.00 | 0.00 | 0.00 | 75 | 1014.4 |
| 20260503025029 | 60 | 264 | 2.6 | 4.3 | 0.00 | 0.00 | 0.00 | 75 | 1014.5 |
| 20260503024533 | 60 | 245 | 0.9 | 4.3 | 0.00 | 0.00 | 0.00 | 75 | 1014.5 |
| 20260503024047 | 60 | 214 | 0.9 | 4.3 | 0.00 | 0.00 | 0.00 | 75 | 1014.7 |
| 20260503023542 | 60 | 248 | 2.6 | 4.3 | 0.00 | 0.00 | 0.00 | 75 | 1014.7 |
| 20260503023038 | 60 | 250 | 3.5 | 4.3 | 0.00 | 0.00 | 0.00 | 75 | 1014.7 |
| 20260503022517 | 60 | 217 | 1.7 | 3.5 | 0.00 | 0.00 | 0.00 | 75 | 1014.7 |
| 20260503022017 | 60 | 245 | 1.7 | 3.5 | 0.00 | 0.00 | 0.00 | 75 | 1014.6 |
| 20260503021522 | 60 | 252 | 2.6 | 4.3 | 0.00 | 0.00 | 0.00 | 75 | 1014.7 |
| 20260503021034 | 60 | 248 | 2.6 | 4.3 | 0.00 | 0.00 | 0.00 | 75 | 1014.6 |
| 20260503020535 | 60 | 270 | 3.5 | 5.2 | 0.00 | 0.00 | 0.00 | 74 | 1014.6 |
| 20260503020049 | 60 | 256 | 3.5 | 6.1 | 0.00 | 0.00 | 0.00 | 74 | 1014.6 |
| 20260503015609 | 61 | 231 | 3.5 | 6.1 | 0.00 | 0.00 | 0.00 | 73 | 1012.1 |
| 20260503015031 | 61 | 226 | 0.0 | 4.3 | 0.00 | 0.00 | 0.00 | 72 | 1014.6 |
| 20260503014525 | 61 | 237 | 0.9 | 5.2 | 0.00 | 0.00 | 0.00 | 72 | 1014.6 |
| 20260503014029 | 61 | 249 | 3.5 | 5.2 | 0.00 | 0.00 | 0.00 | 72 | 1014.5 |
| 20260503013525 | 61 | 233 | 1.7 | 5.2 | 0.00 | 0.00 | 0.00 | 72 | 1014.6 |
| 20260503013024 | 61 | 214 | 1.7 | 4.3 | 0.00 | 0.00 | 0.00 | 71 | 1014.7 |
| 20260503012529 | 61 | 243 | 3.5 | 4.3 | 0.00 | 0.00 | 0.00 | 70 | 1014.7 |
| 20260503012019 | 61 | 215 | 1.7 | 4.3 | 0.00 | 0.00 | 0.00 | 71 | 1014.6 |
| 20260503011534 | 61 | 254 | 1.7 | 4.3 | 0.00 | 0.00 | 0.00 | 71 | 1014.7 |
| 20260503011053 | 61 | 214 | 1.7 | 2.6 | 0.00 | 0.00 | 0.00 | 72 | 1014.7 |
| 20260503010607 | 61 | 221 | 0.0 | 3.5 | 0.00 | 0.00 | 0.00 | 72 | 1012.3 |
| 20260503005526 | 61 | 241 | 1.7 | 2.6 | 0.00 | 0.00 | 0.00 | 73 | 1014.9 |
| 20260503005057 | 61 | 238 | 0.9 | 2.6 | 0.00 | 0.00 | 0.00 | 74 | 1015.0 |
| 20260503004539 | 61 | 229 | 0.0 | 2.6 | 0.00 | 0.00 | 0.00 | 75 | 1015.1 |
| 20260503004019 | 61 | 241 | 0.0 | 2.6 | 0.00 | 0.00 | 0.00 | 74 | 1015.2 |
| 20260503003516 | 61 | 223 | 1.7 | 3.5 | 0.00 | 0.00 | 0.00 | 75 | 1015.2 |
| 20260503003018 | 61 | 233 | 2.6 | 3.5 | 0.00 | 0.00 | 0.00 | 74 | 1015.3 |
| 20260503002536 | 61 | 218 | 0.0 | 2.6 | 0.00 | 0.00 | 0.00 | 75 | 1015.3 |
| 20260503002029 | 61 | 217 | 0.0 | 1.7 | 0.00 | 0.00 | 0.00 | 75 | 1015.4 |
| 20260503001532 | 61 | 244 | 0.9 | 2.6 | 0.00 | 0.00 | 0.00 | 75 | 1015.3 |
| 20260503001023 | 61 | 281 | 1.7 | 2.6 | 0.00 | 0.00 | 0.00 | 75 | 1015.4 |
| 20260503000530 | 61 | 264 | 0.0 | 0.0 | 0.00 | 0.00 | 0.00 | 76 | 1015.3 |
| 20260503000045 | 61 | 268 | 0.0 | 0.9 | 0.00 | 0.00 | 0.00 | 75 | 1015.3 |
| 20260502235517 | 62 | 284 | 0.0 | 1.7 | 0.00 | 0.00 | 0.00 | 76 | 1015.4 |
| 20260502235021 | 62 | 285 | 1.7 | 1.7 | 0.00 | 0.00 | 0.00 | 75 | 1015.4 |
| 20260502234527 | 61 | 287 | 0.0 | 0.9 | 0.00 | 0.00 | 0.00 | 76 | 1015.3 |
| 20260502234019 | 61 | 245 | 0.0 | 3.5 | 0.00 | 0.00 | 0.00 | 76 | 1015.5 |
| 20260502233549 | 61 | 240 | 2.6 | 3.5 | 0.00 | 0.00 | 0.00 | 76 | 1015.5 |
| 20260502233052 | 62 | 201 | 0.0 | 1.7 | 0.00 | 0.00 | 0.00 | 76 | 1015.4 |
| 20260502232024 | 62 | 228 | 1.7 | 2.6 | 0.00 | 0.00 | 0.00 | 76 | 1015.6 |
| 20260502231536 | 62 | 237 | 1.7 | 2.6 | 0.00 | 0.00 | 0.00 | 76 | 1015.5 |
| 20260502231026 | 62 | 281 | 1.7 | 2.6 | 0.00 | 0.00 | 0.00 | 76 | 1015.5 |
| 20260502230527 | 62 | 262 | 0.0 | 0.9 | 0.00 | 0.00 | 0.00 | 76 | 1015.5 |
| 20260502230041 | 62 | 239 | 0.0 | 0.9 | 0.00 | 0.00 | 0.00 | 77 | 1015.5 |
| 20260502225608 | 61 | 167 | 0.0 | 0.0 | 0.00 | 0.00 | 0.00 | 77 | 1013.1 |
| 20260502225042 | 61 | 166 | 0.0 | 0.0 | 0.00 | 0.00 | 0.00 | 77 | 1015.6 |
| 20260502224532 | 62 | 166 | 0.0 | 0.0 | 0.00 | 0.00 | 0.00 | 77 | 1015.6 |
| 20260502224033 | 62 | 179 | 0.0 | 0.0 | 0.00 | 0.00 | 0.00 | 77 | 1015.6 |
| 20260502223541 | 62 | 169 | 0.0 | 0.0 | 0.00 | 0.00 | 0.00 | 77 | 1015.6 |
| 20260502223037 | 62 | 189 | 0.0 | 0.9 | 0.00 | 0.00 | 0.00 | 76 | 1015.5 |
| 20260502222527 | 62 | 165 | 0.0 | 0.9 | 0.00 | 0.00 | 0.00 | 76 | 1015.6 |
| 20260502222022 | 62 | 176 | 0.0 | 0.0 | 0.00 | 0.00 | 0.00 | 75 | 1015.6 |
| 20260502221527 | 62 | 270 | 0.0 | 1.7 | 0.00 | 0.00 | 0.00 | 75 | 1015.5 |
| 20260502221024 | 62 | 213 | 0.0 | 1.7 | 0.00 | 0.00 | 0.00 | 75 | 1015.6 |
| 20260502220527 | 63 | 195 | 0.9 | 1.7 | 0.00 | 0.00 | 0.00 | 74 | 1015.6 |
| 20260502220049 | 63 | 179 | 0.0 | 1.7 | 0.00 | 0.00 | 0.00 | 74 | 1015.6 |
| 20260502215542 | 63 | 181 | 1.7 | 3.5 | 0.00 | 0.00 | 0.00 | 73 | 1015.6 |
| 20260502215019 | 63 | 205 | 0.9 | 4.3 | 0.00 | 0.00 | 0.00 | 73 | 1015.8 |
| 20260502214524 | 63 | 257 | 3.5 | 4.3 | 0.00 | 0.00 | 0.00 | 73 | 1015.8 |
| 20260502213516 | 63 | 212 | 2.6 | 4.3 | 0.00 | 0.00 | 0.00 | 72 | 1015.9 |
| 20260502213130 | 63 | 214 | 1.7 | 2.6 | 0.00 | 0.00 | 0.00 | 72 | 1013.4 |
| 20260502212617 | 64 | 158 | 0.9 | 2.6 | 0.00 | 0.00 | 0.00 | 71 | 1013.3 |
| 20260502212047 | 64 | 237 | 0.0 | 5.2 | 0.00 | 0.00 | 0.00 | 70 | 1015.8 |
| 20260502211522 | 64 | 219 | 1.7 | 5.2 | 0.00 | 0.00 | 0.00 | 70 | 1015.8 |
| 20260502211057 | 64 | 200 | 2.6 | 4.3 | 0.00 | 0.00 | 0.00 | 69 | 1015.8 |
| 20260502210040 | 65 | 267 | 2.6 | 4.3 | 0.00 | 0.00 | 0.00 | 68 | 1015.7 |
| 20260502205619 | 65 | 241 | 1.7 | 5.2 | 0.00 | 0.00 | 0.00 | 68 | 1013.1 |
| 20260502205126 | 65 | 248 | 0.9 | 5.2 | 0.00 | 0.00 | 0.00 | 67 | 1013.1 |
| 20260502204524 | 65 | 248 | 1.7 | 5.2 | 0.00 | 0.00 | 0.00 | 67 | 1015.4 |
| 20260502204016 | 65 | 266 | 2.6 | 5.2 | 0.00 | 0.00 | 0.00 | 67 | 1015.5 |
| 20260502203518 | 65 | 264 | 3.5 | 6.1 | 0.00 | 0.00 | 0.00 | 66 | 1015.4 |
| 20260502202517 | 65 | 270 | 4.3 | 5.2 | 0.00 | 0.00 | 0.00 | 65 | 1015.3 |
| 20260502202040 | 65 | 262 | 2.6 | 5.2 | 0.00 | 0.00 | 0.00 | 65 | 1015.3 |
| 20260502201534 | 66 | 259 | 2.6 | 4.3 | 0.00 | 0.00 | 0.00 | 65 | 1015.3 |
| 20260502201056 | 66 | 277 | 0.9 | 6.1 | 0.00 | 0.00 | 0.00 | 64 | 1015.2 |
| 20260502200529 | 66 | 256 | 2.6 | 6.1 | 0.00 | 0.00 | 0.00 | 64 | 1015.1 |
| 20260502200051 | 66 | 248 | 4.3 | 7.0 | 0.00 | 0.00 | 0.00 | 64 | 1015.2 |
| 20260502195535 | 66 | 258 | 2.6 | 7.0 | 0.00 | 0.00 | 0.00 | 64 | 1015.2 |
| 20260502195110 | 66 | 262 | 2.6 | 6.1 | 0.00 | 0.00 | 0.00 | 64 | 1012.7 |
| 20260502194516 | 66 | 259 | 4.3 | 6.1 | 0.00 | 0.00 | 0.00 | 64 | 1015.1 |
| 20260502194127 | 66 | 239 | 3.5 | 7.0 | 0.00 | 0.00 | 0.00 | 63 | 1012.6 |
| 20260502193519 | 66 | 243 | 4.3 | 7.8 | 0.00 | 0.00 | 0.00 | 62 | 1015.1 |
| 20260502193036 | 66 | 283 | 5.2 | 7.8 | 0.00 | 0.00 | 0.00 | 62 | 1015.1 |
| 20260502192537 | 66 | 286 | 2.6 | 7.0 | 0.00 | 0.00 | 0.00 | 61 | 1015.1 |
| 20260502191531 | 67 | 276 | 4.3 | 7.0 | 0.00 | 0.00 | 0.00 | 60 | 1015.1 |
| 20260502191038 | 67 | 288 | 4.3 | 7.0 | 0.00 | 0.00 | 0.00 | 60 | 1015.0 |
| 20260502190526 | 67 | 248 | 5.2 | 7.8 | 0.00 | 0.00 | 0.00 | 59 | 1015.1 |
| 20260502190052 | 67 | 271 | 5.2 | 7.8 | 0.00 | 0.00 | 0.00 | 58 | 1015.0 |
| 20260502185532 | 67 | 243 | 7.0 | 8.7 | 0.00 | 0.00 | 0.00 | 58 | 1015.0 |
| 20260502185027 | 68 | 259 | 6.1 | 8.7 | 0.00 | 0.00 | 0.00 | 57 | 1015.1 |
| 20260502184529 | 68 | 250 | 5.2 | 8.7 | 0.00 | 0.00 | 0.00 | 56 | 1015.1 |
| 20260502184045 | 68 | 229 | 3.5 | 7.8 | 0.00 | 0.00 | 0.00 | 55 | 1015.0 |
| 20260502183535 | 68 | 266 | 4.3 | 9.6 | 0.00 | 0.00 | 0.00 | 55 | 1015.0 |
| 20260502183031 | 68 | 248 | 4.3 | 9.6 | 0.00 | 0.00 | 0.00 | 54 | 1015.0 |
| 20260502182543 | 68 | 252 | 3.5 | 7.0 | 0.00 | 0.00 | 0.00 | 54 | 1015.0 |
| 20260502182042 | 68 | 267 | 5.2 | 7.0 | 0.00 | 0.00 | 0.00 | 53 | 1014.8 |
| 20260502181521 | 68 | 278 | 2.6 | 8.7 | 0.00 | 0.00 | 0.00 | 54 | 1014.8 |
| 20260502181035 | 68 | 243 | 6.1 | 9.6 | 0.00 | 0.00 | 0.00 | 53 | 1014.9 |
| 20260502180516 | 69 | 241 | 7.8 | 9.6 | 0.00 | 0.00 | 0.00 | 52 | 1014.9 |
| 20260502170516 | 70 | 231 | 5.2 | 13.0 | 0.00 | 0.00 | 0.00 | 50 | 1014.9 |
| 20260502170104 | 70 | 221 | 7.0 | 13.0 | 0.00 | 0.00 | 0.00 | 50 | 1014.9 |
| 20260502164022 | 71 | 244 | 6.1 | 13.0 | 0.00 | 0.00 | 0.00 | 46 | 1014.9 |
| 20260502163532 | 71 | 256 | 6.1 | 12.2 | 0.00 | 0.00 | 0.00 | 45 | 1015.0 |
| 20260502163057 | 71 | 266 | 5.2 | 14.8 | 0.00 | 0.00 | 0.00 | 46 | 1015.0 |
| 20260502162524 | 71 | 244 | 7.8 | 14.8 | 0.00 | 0.00 | 0.00 | 47 | 1015.0 |
| 20260502162027 | 71 | 223 | 8.7 | 13.9 | 0.00 | 0.00 | 0.00 | 47 | 1015.1 |
| 20260502161525 | 71 | 203 | 7.8 | 15.6 | 0.00 | 0.00 | 0.00 | 46 | 1015.2 |
| 20260502161022 | 72 | 262 | 8.7 | 15.6 | 0.00 | 0.00 | 0.00 | 44 | 1015.1 |
| 20260502160524 | 72 | 222 | 5.2 | 12.2 | 0.00 | 0.00 | 0.00 | 45 | 1015.1 |
| 20260502152035 | 71 | 240 | 8.7 | 15.6 | 0.00 | 0.00 | 0.00 | 53 | 1015.4 |
| 20260502151605 | 71 | 205 | 10.4 | 14.8 | 0.00 | 0.00 | 0.00 | 52 | 1015.6 |
| 20260502151045 | 71 | 208 | 9.6 | 14.8 | 0.00 | 0.00 | 0.00 | 54 | 1015.6 |
| 20260502150522 | 71 | 215 | 8.7 | 14.8 | 0.00 | 0.00 | 0.00 | 55 | 1015.6 |
| 20260502130525 | 69 | 166 | 1.7 | 7.0 | 0.00 | 0.00 | 0.00 | 61 | 1016.7 |
| 20260502130132 | 69 | 203 | 0.9 | 11.3 | 0.00 | 0.00 | 0.00 | 61 | 1014.3 |
| 20260502123545 | 69 | 181 | 5.2 | 9.6 | 0.00 | 0.00 | 0.00 | 61 | 1016.9 |
| 20260502123016 | 69 | 224 | 4.3 | 6.1 | 0.00 | 0.00 | 0.00 | 62 | 1017.0 |
| 20260502122521 | 69 | 231 | 2.6 | 7.0 | 0.00 | 0.00 | 0.00 | 63 | 1017.1 |
| 20260502122038 | 69 | 266 | 2.6 | 7.0 | 0.00 | 0.00 | 0.00 | 62 | 1017.0 |
| 20260502121524 | 70 | 256 | 1.7 | 5.2 | 0.00 | 0.00 | 0.00 | 61 | 1017.2 |
| 20260502121105 | 70 | 309 | 0.9 | 4.3 | 0.00 | 0.00 | 0.00 | 62 | 1014.7 |
| 20260502120549 | 69 | 192 | 2.6 | 6.1 | 0.00 | 0.00 | 0.00 | 62 | 1017.3 |
| 20260502120138 | 69 | 167 | 4.3 | 6.1 | 0.00 | 0.00 | 0.00 | 62 | 1014.8 |
| 20260502115531 | 69 | 207 | 1.7 | 6.1 | 0.00 | 0.00 | 0.00 | 63 | 1017.2 |
| 20260502115107 | 69 | 139 | 3.5 | 6.1 | 0.00 | 0.00 | 0.00 | 63 | 1014.8 |
| 20260502114544 | 68 | 266 | 2.6 | 6.1 | 0.00 | 0.00 | 0.00 | 64 | 1017.4 |
| 20260502114029 | 68 | 238 | 2.6 | 7.8 | 0.00 | 0.00 | 0.00 | 63 | 1017.5 |
| 20260502113024 | 68 | 277 | 0.9 | 5.2 | 0.00 | 0.00 | 0.00 | 63 | 1017.5 |
| 20260502112552 | 67 | 245 | 3.5 | 5.2 | 0.00 | 0.00 | 0.00 | 63 | 1017.5 |
| 20260502112055 | 67 | 176 | 0.0 | 3.5 | 0.00 | 0.00 | 0.00 | 65 | 1017.8 |
| 20260502111557 | 67 | 244 | 1.7 | 3.5 | 0.00 | 0.00 | 0.00 | 64 | 1018.0 |
| 20260502111033 | 67 | 94 | 1.7 | 4.3 | 0.00 | 0.00 | 0.00 | 65 | 1018.0 |
| 20260502110517 | 66 | 101 | 1.7 | 4.3 | 0.00 | 0.00 | 0.00 | 65 | 1018.2 |
| 20260502110049 | 66 | 216 | 1.7 | 3.5 | 0.00 | 0.00 | 0.00 | 64 | 1018.3 |
| 20260502105605 | 67 | 257 | 0.9 | 3.5 | 0.00 | 0.00 | 0.00 | 63 | 1015.8 |
| 20260502105031 | 67 | 250 | 0.0 | 3.5 | 0.00 | 0.00 | 0.00 | 63 | 1018.4 |
| 20260502104523 | 68 | 269 | 0.9 | 2.6 | 0.00 | 0.00 | 0.00 | 62 | 1018.3 |
| 20260502104025 | 67 | 163 | 0.0 | 2.6 | 0.00 | 0.00 | 0.00 | 63 | 1018.3 |
| 20260502103527 | 67 | 208 | 1.7 | 2.6 | 0.00 | 0.00 | 0.00 | 63 | 1018.2 |
| 20260502103023 | 66 | 221 | 0.0 | 4.3 | 0.00 | 0.00 | 0.00 | 66 | 1018.3 |
| 20260502102526 | 65 | 266 | 0.0 | 6.1 | 0.00 | 0.00 | 0.00 | 65 | 1018.4 |
| 20260502102016 | 65 | 236 | 0.0 | 3.5 | 0.00 | 0.00 | 0.00 | 65 | 1018.6 |
| 20260502101634 | 66 | 236 | 1.7 | 3.5 | 0.00 | 0.00 | 0.00 | 65 | 1016.2 |
| 20260502101117 | 66 | 246 | 2.6 | 3.5 | 0.00 | 0.00 | 0.00 | 64 | 1016.2 |
| 20260502100530 | 67 | 295 | 0.0 | 2.6 | 0.00 | 0.00 | 0.00 | 63 | 1018.5 |
| 20260502091530 | 64 | 315 | 3.5 | 5.2 | 0.00 | 0.00 | 0.00 | 66 | 1018.7 |
| 20260502090532 | 64 | 292 | 2.6 | 3.5 | 0.00 | 0.00 | 0.00 | 66 | 1018.7 |